Location: Beekmeers
(50.8953°N, 3.6968°E)
Time: 20:22:30
(UTC+00:00)

Geosat - Pass Details

Date: 23 May 2024
Orbit: 760 x 763 km, 108.1° (Epoch: 14 June)

Event Time Altitude Azimuth Distance (km) Brightness Sun altitude
Rises 02:25:10 0° 140° (SE) 3,214 7.1 -10.0°
Reaches altitude 10° 02:27:26 10° 139° (SE) 2,293 6.4 -9.7°
Maximum altitude 02:32:25 72° 56° (NE) 807 4.3 -9.2°
Drops below altitude 10° 02:37:25 10° 333° (NNW) 2,309 6.8 -8.7°
Sets 02:39:43 0° 331° (NNW) 3,240 7.5 -8.5°
